Time,TemperatureF,DewpointF,PressureIn,WindDirection,WindDirectionDegrees,WindSpeedMPH,WindSpeedGustMPH,Humidity,HourlyPrecipIn,Conditions,Clouds,dailyrainin,SoftwareType,DateUTC
2013-05-12 00:01:00,61.0,60.1,29.70,South,175,0.0,2.0,97,0.00,,,0.64,Wunderground v.1.15,2013-05-12 04:01:00,
2013-05-12 00:02:00,60.9,60.0,29.69,ENE,78,1.0,2.0,97,0.00,,,0.64,Wunderground v.1.15,2013-05-12 04:02:00,
2013-05-12 00:03:00,60.9,60.0,29.69,ENE,78,0.0,2.0,97,0.00,,,0.64,Wunderground v.1.15,2013-05-12 04:03:00,
2013-05-12 00:04:00,60.9,60.0,29.70,ENE,78,1.0,2.0,97,0.00,,,0.64,Wunderground v.1.15,2013-05-12 04:04:00,
2013-05-12 00:05:00,60.9,60.0,29.69,SE,131,2.0,2.0,97,0.00,,,0.64,Wunderground v.1.15,2013-05-12 04:05:00,
2013-05-12 00:15:00,60.8,59.9,29.69,SE,132,1.0,1.0,97,0.00,,,0.64,Wunderground v.1.15,2013-05-12 04:15:00,
2013-05-12 00:20:00,60.8,59.9,29.69,SSW,192,1.0,1.0,97,0.00,,,0.64,Wunderground v.1.15,2013-05-12 04:20:00,
2013-05-12 00:26:00,60.7,59.8,29.69,SSW,192,0.0,1.0,97,0.00,,,0.00,Wunderground v.1.15,2013-05-12 04:26:00,
2013-05-12 00:31:00,60.7,59.8,29.69,SSW,192,0.0,1.0,97,0.00,,,0.00,Wunderground v.1.15,2013-05-12 04:31:00,
2013-05-12 00:36:00,60.7,59.8,29.69,SSW,192,0.0,0.0,97,0.00,,,0.00,Wunderground v.1.15,2013-05-12 04:36:00,
2013-05-12 00:41:00,60.7,59.8,29.69,East,95,0.0,2.0,97,0.00,,,0.00,Wunderground v.1.15,2013-05-12 04:41:00,
2013-05-12 00:46:00,60.7,59.8,29.69,East,86,1.0,1.0,97,0.00,,,0.00,Wunderground v.1.15,2013-05-12 04:46:00,
2013-05-12 00:52:00,60.7,59.8,29.69,South,170,1.0,1.0,97,0.00,,,0.00,Wunderground v.1.15,2013-05-12 04:52:00,
2013-05-12 00:58:00,60.7,59.8,29.69,SSW,213,0.0,3.0,97,0.00,,,0.00,Wunderground v.1.15,2013-05-12 04:58:00,
2013-05-12 01:03:00,60.6,59.7,29.69,SW,225,0.0,1.0,97,0.00,,,0.00,Wunderground v.1.15,2013-05-12 05:03:00,
2013-05-12 01:08:00,60.5,59.6,29.69,SSW,207,1.0,1.0,97,0.00,,,0.00,Wunderground v.1.15,2013-05-12 05:08:00,
2013-05-12 01:13:00,60.4,59.5,29.69,SSW,207,1.0,1.0,97,0.00,,,0.00,Wunderground v.1.15,2013-05-12 05:13:00,
2013-05-12 01:18:00,60.3,59.4,29.69,SSE,153,0.0,3.0,97,0.00,,,0.00,Wunderground v.1.15,2013-05-12 05:18:00,
2013-05-12 01:24:00,60.3,59.4,29.69,SSE,153,0.0,0.0,97,0.00,,,0.00,Wunderground v.1.15,2013-05-12 05:24:00,
2013-05-12 01:30:00,60.2,59.3,29.69,South,177,1.0,1.0,97,0.00,,,0.00,Wunderground v.1.15,2013-05-12 05:30:00,
2013-05-12 01:35:00,60.1,59.2,29.69,SE,134,0.0,1.0,97,0.00,,,0.00,Wunderground v.1.15,2013-05-12 05:35:00,
2013-05-12 01:40:00,60.0,59.1,29.68,SSE,161,0.0,0.0,97,0.00,,,0.00,Wunderground v.1.15,2013-05-12 05:40:00,
2013-05-12 01:46:00,59.8,58.9,29.68,South,185,1.0,1.0,97,0.00,,,0.00,Wunderground v.1.15,2013-05-12 05:46:00,
2013-05-12 01:51:00,59.6,58.7,29.68,SSE,163,2.0,2.0,97,0.00,,,0.00,Wunderground v.1.15,2013-05-12 05:51:00,
2013-05-12 01:58:00,59.5,58.6,29.68,SSE,161,0.0,2.0,97,0.00,,,0.00,Wunderground v.1.15,2013-05-12 05:58:00,
2013-05-12 02:03:00,59.3,58.4,29.67,SSE,161,1.0,2.0,97,0.00,,,0.00,Wunderground v.1.15,2013-05-12 06:03:00,
2013-05-12 02:08:00,59.3,58.4,29.67,SSE,161,0.0,2.0,97,0.00,,,0.00,Wunderground v.1.15,2013-05-12 06:08:00,
2013-05-12 02:13:00,59.3,58.4,29.67,SSE,161,0.0,2.0,97,0.00,,,0.00,Wunderground v.1.15,2013-05-12 06:13:00,
2013-05-12 02:18:00,59.1,58.2,29.67,South,173,0.0,4.0,97,0.00,,,0.00,Wunderground v.1.15,2013-05-12 06:18:00,
2013-05-12 02:23:00,59.1,58.2,29.67,South,170,1.0,2.0,97,0.00,,,0.00,Wunderground v.1.15,2013-05-12 06:23:00,
2013-05-12 02:28:00,59.0,58.2,29.67,ENE,66,1.0,3.0,97,0.00,,,0.00,Wunderground v.1.15,2013-05-12 06:28:00,
2013-05-12 02:33:00,58.9,58.1,29.68,SSE,159,0.0,3.0,97,0.00,,,0.00,Wunderground v.1.15,2013-05-12 06:33:00,
2013-05-12 02:38:00,58.8,58.0,29.67,NE,49,0.0,3.0,97,0.00,,,0.00,Wunderground v.1.15,2013-05-12 06:38:00,
2013-05-12 02:43:00,58.6,57.8,29.67,NE,49,1.0,1.0,97,0.00,,,0.00,Wunderground v.1.15,2013-05-12 06:43:00,
2013-05-12 02:48:00,58.5,57.7,29.66,NE,49,0.0,1.0,97,0.00,,,0.00,Wunderground v.1.15,2013-05-12 06:48:00,
2013-05-12 02:53:00,58.4,57.6,29.67,NE,49,0.0,0.0,97,0.00,,,0.00,Wunderground v.1.15,2013-05-12 06:53:00,
2013-05-12 02:58:00,58.3,57.5,29.67,NE,49,0.0,1.0,97,0.00,,,0.00,Wunderground v.1.15,2013-05-12 06:58:00,
2013-05-12 03:04:00,58.3,57.5,29.67,NE,49,0.0,1.0,97,0.00,,,0.00,Wunderground v.1.15,2013-05-12 07:04:00,
2013-05-12 03:09:00,58.3,57.5,29.67,NE,49,0.0,1.0,97,0.00,,,0.00,Wunderground v.1.15,2013-05-12 07:09:00,
2013-05-12 03:14:00,58.2,57.6,29.67,NE,49,1.0,2.0,98,0.00,,,0.00,Wunderground v.1.15,2013-05-12 07:14:00,
2013-05-12 03:19:00,58.1,57.3,29.67,NE,49,0.0,2.0,97,0.00,,,0.00,Wunderground v.1.15,2013-05-12 07:19:00,
2013-05-12 03:24:00,58.0,57.2,29.67,NE,49,0.0,1.0,97,0.00,,,0.00,Wunderground v.1.15,2013-05-12 07:24:00,
2013-05-12 03:29:00,58.0,57.2,29.67,NE,49,2.0,2.0,97,0.00,,,0.00,Wunderground v.1.15,2013-05-12 07:29:00,
2013-05-12 03:34:00,58.0,57.4,29.66,NE,49,0.0,1.0,98,0.00,,,0.00,Wunderground v.1.15,2013-05-12 07:34:00,
2013-05-12 03:39:00,58.0,57.4,29.66,NE,49,0.0,1.0,98,0.00,,,0.00,Wunderground v.1.15,2013-05-12 07:39:00,
2013-05-12 03:44:00,58.0,57.4,29.65,NE,49,0.0,0.0,98,0.00,,,0.00,Wunderground v.1.15,2013-05-12 07:44:00,
2013-05-12 03:49:00,58.0,57.4,29.65,NE,49,0.0,3.0,98,0.00,,,0.00,Wunderground v.1.15,2013-05-12 07:49:00,
2013-05-12 03:54:00,57.9,57.3,29.64,NE,49,0.0,0.0,98,0.00,,,0.00,Wunderground v.1.15,2013-05-12 07:54:00,
2013-05-12 03:59:00,57.8,57.2,29.64,NE,49,0.0,0.0,98,0.00,,,0.00,Wunderground v.1.15,2013-05-12 07:59:00,
2013-05-12 04:04:00,57.8,57.2,29.64,NE,49,0.0,1.0,98,0.00,,,0.00,Wunderground v.1.15,2013-05-12 08:04:00,
2013-05-12 04:09:00,57.8,57.2,29.64,NE,49,0.0,1.0,98,0.00,,,0.00,Wunderground v.1.15,2013-05-12 08:09:00,
2013-05-12 04:15:00,57.8,57.2,29.64,NE,49,0.0,2.0,98,0.00,,,0.00,Wunderground v.1.15,2013-05-12 08:15:00,
2013-05-12 04:20:00,57.8,57.2,29.64,NE,49,1.0,2.0,98,0.00,,,0.00,Wunderground v.1.15,2013-05-12 08:20:00,
2013-05-12 04:25:00,57.7,57.1,29.64,NE,50,0.0,3.0,98,0.00,,,0.00,Wunderground v.1.15,2013-05-12 08:25:00,
2013-05-12 04:30:00,57.7,57.1,29.64,NE,50,0.0,3.0,98,0.00,,,0.00,Wunderground v.1.15,2013-05-12 08:30:00,
2013-05-12 04:35:00,57.6,57.0,29.65,West,277,1.0,3.0,98,0.00,,,0.00,Wunderground v.1.15,2013-05-12 08:35:00,
2013-05-12 04:40:00,57.6,57.0,29.66,West,261,0.0,0.0,98,0.00,,,0.00,Wunderground v.1.15,2013-05-12 08:40:00,
2013-05-12 04:45:00,57.6,57.0,29.66,West,261,0.0,0.0,98,0.00,,,0.00,Wunderground v.1.15,2013-05-12 08:45:00,
2013-05-12 04:50:00,57.6,57.0,29.66,West,261,0.0,0.0,98,0.00,,,0.00,Wunderground v.1.15,2013-05-12 08:50:00,
2013-05-12 04:55:00,57.6,57.0,29.66,West,260,0.0,1.0,98,0.00,,,0.00,Wunderground v.1.15,2013-05-12 08:55:00,
2013-05-12 05:00:00,57.6,57.0,29.66,SSW,202,0.0,0.0,98,0.00,,,0.00,Wunderground v.1.15,2013-05-12 09:00:00,
2013-05-12 05:05:00,57.6,57.0,29.66,SSW,196,0.0,2.0,98,0.00,,,0.01,Wunderground v.1.15,2013-05-12 09:05:00,
2013-05-12 05:11:00,57.5,56.9,29.66,South,189,0.0,2.0,98,0.08,,,0.02,Wunderground v.1.15,2013-05-12 09:11:00,
2013-05-12 05:16:00,57.5,56.9,29.66,South,187,0.0,2.0,98,0.08,,,0.02,Wunderground v.1.15,2013-05-12 09:16:00,
2013-05-12 05:21:00,57.4,56.8,29.66,South,187,0.0,0.0,98,0.08,,,0.03,Wunderground v.1.15,2013-05-12 09:21:00,
2013-05-12 05:26:00,57.4,56.8,29.66,South,187,0.0,1.0,98,0.06,,,0.03,Wunderground v.1.15,2013-05-12 09:26:00,
2013-05-12 05:31:00,57.3,56.7,29.65,South,187,0.0,0.0,98,0.06,,,0.04,Wunderground v.1.15,2013-05-12 09:31:00,
2013-05-12 05:36:00,57.3,56.7,29.65,South,187,0.0,1.0,98,0.09,,,0.05,Wunderground v.1.15,2013-05-12 09:36:00,
2013-05-12 05:41:00,57.3,56.7,29.66,South,187,0.0,1.0,98,0.07,,,0.05,Wunderground v.1.15,2013-05-12 09:41:00,
2013-05-12 05:46:00,57.3,56.7,29.65,South,187,0.0,1.0,98,0.05,,,0.05,Wunderground v.1.15,2013-05-12 09:46:00,
2013-05-12 05:51:00,57.3,56.7,29.65,South,187,0.0,0.0,98,0.00,,,0.05,Wunderground v.1.15,2013-05-12 09:51:00,
2013-05-12 05:56:00,57.3,56.7,29.65,South,187,0.0,1.0,98,0.00,,,0.06,Wunderground v.1.15,2013-05-12 09:56:00,
2013-05-12 06:01:00,57.3,56.7,29.65,South,187,0.0,0.0,98,0.00,,,0.06,Wunderground v.1.15,2013-05-12 10:01:00,
2013-05-12 06:06:00,57.4,56.8,29.65,SSE,164,0.0,2.0,98,0.00,,,0.06,Wunderground v.1.15,2013-05-12 10:06:00,
2013-05-12 06:12:00,57.3,56.7,29.65,SSE,164,1.0,1.0,98,0.00,,,0.06,Wunderground v.1.15,2013-05-12 10:12:00,
2013-05-12 06:17:00,57.3,56.7,29.65,SSE,164,0.0,1.0,98,0.00,,,0.06,Wunderground v.1.15,2013-05-12 10:17:00,
2013-05-12 06:22:00,57.3,56.7,29.65,SSE,164,0.0,0.0,98,0.00,,,0.06,Wunderground v.1.15,2013-05-12 10:22:00,
2013-05-12 06:27:00,57.3,56.7,29.65,SSE,164,0.0,1.0,98,0.00,,,0.06,Wunderground v.1.15,2013-05-12 10:27:00,
2013-05-12 06:32:00,57.3,56.7,29.65,SSE,164,0.0,1.0,98,0.00,,,0.07,Wunderground v.1.15,2013-05-12 10:32:00,
2013-05-12 06:37:00,57.3,56.7,29.65,SSE,164,0.0,2.0,98,0.00,,,0.07,Wunderground v.1.15,2013-05-12 10:37:00,
2013-05-12 06:42:00,57.2,56.6,29.65,SSE,164,0.0,1.0,98,0.00,,,0.07,Wunderground v.1.15,2013-05-12 10:42:00,
2013-05-12 06:47:00,57.2,56.6,29.64,SSE,164,0.0,1.0,98,0.00,,,0.07,Wunderground v.1.15,2013-05-12 10:47:00,
2013-05-12 06:52:00,57.1,56.5,29.64,SSE,164,1.0,1.0,98,0.00,,,0.07,Wunderground v.1.15,2013-05-12 10:52:00,
2013-05-12 06:57:00,57.1,56.5,29.64,SSE,165,0.0,2.0,98,0.00,,,0.07,Wunderground v.1.15,2013-05-12 10:57:00,
2013-05-12 07:03:00,57.0,56.4,29.64,SSE,165,0.0,0.0,98,0.00,,,0.07,Wunderground v.1.15,2013-05-12 11:03:00,
2013-05-12 07:08:00,57.0,56.4,29.64,SSE,165,0.0,1.0,98,0.00,,,0.07,Wunderground v.1.15,2013-05-12 11:08:00,
2013-05-12 07:13:00,57.0,56.4,29.64,SSE,165,0.0,0.0,98,0.00,,,0.07,Wunderground v.1.15,2013-05-12 11:13:00,
2013-05-12 07:18:00,57.0,56.4,29.64,SSE,165,0.0,1.0,98,0.00,,,0.07,Wunderground v.1.15,2013-05-12 11:18:00,
2013-05-12 07:23:00,57.0,56.4,29.64,SSE,165,0.0,0.0,98,0.00,,,0.07,Wunderground v.1.15,2013-05-12 11:23:00,
2013-05-12 07:28:00,57.0,56.4,29.64,SSE,165,0.0,1.0,98,0.00,,,0.07,Wunderground v.1.15,2013-05-12 11:28:00,
2013-05-12 07:33:00,57.0,56.4,29.64,SSE,165,1.0,1.0,98,0.00,,,0.07,Wunderground v.1.15,2013-05-12 11:33:00,
2013-05-12 07:38:00,57.0,56.4,29.64,SSE,165,0.0,1.0,98,0.00,,,0.07,Wunderground v.1.15,2013-05-12 11:38:00,
2013-05-12 07:43:00,57.0,56.4,29.64,SSE,165,1.0,2.0,98,0.00,,,0.07,Wunderground v.1.15,2013-05-12 11:43:00,
2013-05-12 07:48:00,56.9,56.3,29.64,SSE,165,0.0,2.0,98,0.00,,,0.07,Wunderground v.1.15,2013-05-12 11:48:00,
2013-05-12 07:53:00,56.9,56.3,29.64,SSE,165,0.0,1.0,98,0.00,,,0.07,Wunderground v.1.15,2013-05-12 11:53:00,
2013-05-12 07:58:00,56.9,56.3,29.64,SSE,165,0.0,1.0,98,0.00,,,0.07,Wunderground v.1.15,2013-05-12 11:58:00,
2013-05-12 08:03:00,56.9,56.3,29.63,SSE,165,0.0,0.0,98,0.00,,,0.07,Wunderground v.1.15,2013-05-12 12:03:00,
2013-05-12 08:08:00,57.0,56.4,29.63,SSE,165,0.0,0.0,98,0.00,,,0.07,Wunderground v.1.15,2013-05-12 12:08:00,
2013-05-12 08:14:00,57.0,56.4,29.63,SSE,165,0.0,1.0,98,0.00,,,0.08,Wunderground v.1.15,2013-05-12 12:14:00,
2013-05-12 08:19:00,57.1,56.5,29.63,SSE,165,0.0,1.0,98,0.00,,,0.08,Wunderground v.1.15,2013-05-12 12:19:00,
2013-05-12 08:24:00,57.2,56.6,29.64,SSE,165,0.0,1.0,98,0.00,,,0.08,Wunderground v.1.15,2013-05-12 12:24:00,
2013-05-12 08:29:00,57.4,56.8,29.64,SSE,168,0.0,1.0,98,0.00,,,0.08,Wunderground v.1.15,2013-05-12 12:29:00,
2013-05-12 08:34:00,57.6,57.0,29.64,SSE,168,0.0,0.0,98,0.00,,,0.08,Wunderground v.1.15,2013-05-12 12:34:00,
2013-05-12 08:39:00,57.7,57.1,29.63,SSE,168,0.0,1.0,98,0.00,,,0.08,Wunderground v.1.15,2013-05-12 12:39:00,
2013-05-12 08:44:00,57.6,57.0,29.63,SSE,155,0.0,1.0,98,0.00,,,0.08,Wunderground v.1.15,2013-05-12 12:44:00,
2013-05-12 08:49:00,57.5,56.9,29.63,SSE,155,0.0,1.0,98,0.00,,,0.08,Wunderground v.1.15,2013-05-12 12:49:00,
2013-05-12 08:54:00,57.6,57.0,29.63,SSE,155,0.0,1.0,98,0.00,,,0.08,Wunderground v.1.15,2013-05-12 12:54:00,
2013-05-12 08:59:00,57.7,57.1,29.62,SSE,155,0.0,2.0,98,0.00,,,0.08,Wunderground v.1.15,2013-05-12 12:59:00,
2013-05-12 09:04:00,57.8,57.2,29.61,SSE,155,0.0,1.0,98,0.00,,,0.08,Wunderground v.1.15,2013-05-12 13:04:00,
2013-05-12 09:09:00,57.9,57.3,29.62,SSE,155,0.0,1.0,98,0.00,,,0.08,Wunderground v.1.15,2013-05-12 13:09:00,
2013-05-12 09:14:00,58.1,57.5,29.62,SSE,155,0.0,0.0,98,0.00,,,0.08,Wunderground v.1.15,2013-05-12 13:14:00,
2013-05-12 09:19:00,58.2,57.6,29.62,SSE,155,0.0,1.0,98,0.00,,,0.08,Wunderground v.1.15,2013-05-12 13:19:00,
2013-05-12 09:24:00,58.4,57.8,29.62,SSE,155,0.0,0.0,98,0.00,,,0.08,Wunderground v.1.15,2013-05-12 13:24:00,
2013-05-12 09:29:00,58.6,58.0,29.62,SSE,153,0.0,1.0,98,0.00,,,0.08,Wunderground v.1.15,2013-05-12 13:29:00,
2013-05-12 09:34:00,58.7,58.1,29.62,SE,133,0.0,1.0,98,0.00,,,0.08,Wunderground v.1.15,2013-05-12 13:34:00,
2013-05-12 09:39:00,58.8,58.2,29.62,SE,134,0.0,1.0,98,0.00,,,0.08,Wunderground v.1.15,2013-05-12 13:39:00,
2013-05-12 09:44:00,59.0,58.4,29.63,SE,143,0.0,2.0,98,0.00,,,0.08,Wunderground v.1.15,2013-05-12 13:44:00,
2013-05-12 09:49:00,59.1,58.5,29.63,SE,143,0.0,2.0,98,0.00,,,0.08,Wunderground v.1.15,2013-05-12 13:49:00,
2013-05-12 09:54:00,59.3,58.7,29.62,West,275,3.0,8.0,98,0.00,,,0.08,Wunderground v.1.15,2013-05-12 13:54:00,
2013-05-12 09:59:00,59.3,58.7,29.62,SW,225,0.0,8.0,98,0.00,,,0.08,Wunderground v.1.15,2013-05-12 13:59:00,
2013-05-12 10:05:00,59.5,58.9,29.62,SW,227,0.0,1.0,98,0.00,,,0.08,Wunderground v.1.15,2013-05-12 14:05:00,
2013-05-12 10:10:00,59.7,59.1,29.62,SW,227,0.0,4.0,98,0.00,,,0.08,Wunderground v.1.15,2013-05-12 14:10:00,
2013-05-12 10:15:00,59.6,59.0,29.62,WNW,302,3.0,5.0,98,0.00,,,0.08,Wunderground v.1.15,2013-05-12 14:15:00,
2013-05-12 10:20:00,59.6,59.0,29.62,ESE,123,0.0,1.0,98,0.00,,,0.08,Wunderground v.1.15,2013-05-12 14:20:00,
2013-05-12 10:25:00,59.8,59.2,29.62,ESE,123,0.0,1.0,98,0.00,,,0.08,Wunderground v.1.15,2013-05-12 14:25:00,
2013-05-12 10:30:00,59.8,58.9,29.62,WSW,242,1.0,1.0,97,0.00,,,0.08,Wunderground v.1.15,2013-05-12 14:30:00,
2013-05-12 10:35:00,60.0,59.1,29.61,SSE,154,0.0,2.0,97,0.00,,,0.08,Wunderground v.1.15,2013-05-12 14:35:00,
2013-05-12 10:40:00,60.2,59.6,29.61,NW,306,0.0,1.0,98,0.00,,,0.08,Wunderground v.1.15,2013-05-12 14:40:00,
2013-05-12 10:45:00,60.3,59.4,29.61,NW,313,0.0,3.0,97,0.00,,,0.08,Wunderground v.1.15,2013-05-12 14:45:00,
2013-05-12 10:50:00,60.5,59.6,29.60,South,190,1.0,1.0,97,0.00,,,0.08,Wunderground v.1.15,2013-05-12 14:50:00,
2013-05-12 10:55:00,60.8,59.9,29.60,SSW,198,1.0,2.0,97,0.00,,,0.08,Wunderground v.1.15,2013-05-12 14:55:00,
2013-05-12 11:00:00,61.1,60.0,29.60,WNW,282,0.0,1.0,96,0.00,,,0.08,Wunderground v.1.15,2013-05-12 15:00:00,
2013-05-12 11:05:00,61.6,60.2,29.60,WNW,301,0.0,4.0,95,0.00,,,0.08,Wunderground v.1.15,2013-05-12 15:05:00,
2013-05-12 11:10:00,61.9,60.5,29.60,WNW,299,1.0,1.0,95,0.00,,,0.08,Wunderground v.1.15,2013-05-12 15:10:00,
2013-05-12 11:15:00,62.2,60.8,29.60,South,189,0.0,2.0,95,0.00,,,0.08,Wunderground v.1.15,2013-05-12 15:15:00,
2013-05-12 11:20:00,62.5,60.7,29.61,WSW,256,0.0,0.0,94,0.00,,,0.08,Wunderground v.1.15,2013-05-12 15:20:00,
2013-05-12 11:26:00,62.7,60.6,29.61,NW,325,0.0,3.0,93,0.00,,,0.08,Wunderground v.1.15,2013-05-12 15:26:00,
2013-05-12 11:31:00,62.7,60.3,29.61,West,274,0.0,1.0,92,0.00,,,0.08,Wunderground v.1.15,2013-05-12 15:31:00,
2013-05-12 11:36:00,62.9,60.5,29.61,West,277,0.0,1.0,92,0.00,,,0.08,Wunderground v.1.15,2013-05-12 15:36:00,
2013-05-12 11:41:00,63.0,60.6,29.61,SE,135,0.0,0.0,92,0.00,,,0.08,Wunderground v.1.15,2013-05-12 15:41:00,
2013-05-12 11:46:00,63.2,60.5,29.60,SE,135,0.0,1.0,91,0.00,,,0.08,Wunderground v.1.15,2013-05-12 15:46:00,
2013-05-12 11:51:00,63.7,61.0,29.60,SE,135,0.0,1.0,91,0.00,,,0.08,Wunderground v.1.15,2013-05-12 15:51:00,
2013-05-12 11:56:00,64.2,61.2,29.60,SE,135,0.0,2.0,90,0.00,,,0.08,Wunderground v.1.15,2013-05-12 15:56:00,
2013-05-12 12:01:00,64.9,61.3,29.60,WSW,248,0.0,1.0,88,0.00,,,0.08,Wunderground v.1.15,2013-05-12 16:01:00,
2013-05-12 12:06:00,65.3,60.7,29.60,SSW,204,0.0,7.0,85,0.00,,,0.08,Wunderground v.1.15,2013-05-12 16:06:00,
2013-05-12 12:11:00,65.3,60.3,29.60,WNW,302,1.0,2.0,84,0.00,,,0.08,Wunderground v.1.15,2013-05-12 16:11:00,
2013-05-12 12:16:00,65.4,59.8,29.60,South,182,2.0,10.0,82,0.00,,,0.08,Wunderground v.1.15,2013-05-12 16:16:00,
2013-05-12 12:21:00,65.6,60.0,29.60,WSW,252,1.0,1.0,82,0.00,,,0.08,Wunderground v.1.15,2013-05-12 16:21:00,
2013-05-12 12:26:00,65.6,60.0,29.60,West,279,4.0,5.0,82,0.00,,,0.08,Wunderground v.1.15,2013-05-12 16:26:00,
2013-05-12 12:31:00,65.7,59.7,29.60,SSW,199,1.0,4.0,81,0.00,,,0.08,Wunderground v.1.15,2013-05-12 16:31:00,
2013-05-12 12:36:00,65.9,59.9,29.60,South,180,1.0,5.0,81,0.00,,,0.08,Wunderground v.1.15,2013-05-12 16:36:00,
2013-05-12 12:42:00,66.3,60.3,29.60,SSE,167,0.0,1.0,81,0.00,,,0.08,Wunderground v.1.15,2013-05-12 16:42:00,
2013-05-12 12:47:00,66.5,60.8,29.60,WNW,296,0.0,2.0,82,0.00,,,0.08,Wunderground v.1.15,2013-05-12 16:47:00,
2013-05-12 12:52:00,66.8,59.7,29.60,NW,325,2.0,2.0,78,0.00,,,0.08,Wunderground v.1.15,2013-05-12 16:52:00,
2013-05-12 12:57:00,66.9,59.1,29.60,South,184,2.0,5.0,76,0.00,,,0.08,Wunderground v.1.15,2013-05-12 16:57:00,
2013-05-12 13:02:00,67.2,60.1,29.60,SE,128,0.0,3.0,78,0.00,,,0.08,Wunderground v.1.15,2013-05-12 17:02:00,
2013-05-12 13:07:00,67.6,59.8,29.60,SSE,156,2.0,3.0,76,0.00,,,0.08,Wunderground v.1.15,2013-05-12 17:07:00,
2013-05-12 13:12:00,67.7,58.7,29.60,NE,44,0.0,3.0,73,0.00,,,0.08,Wunderground v.1.15,2013-05-12 17:12:00,
2013-05-12 13:17:00,68.1,58.7,29.60,SSE,165,1.0,4.0,72,0.00,,,0.08,Wunderground v.1.15,2013-05-12 17:17:00,
2013-05-12 13:22:00,68.3,58.5,29.60,West,271,1.0,1.0,71,0.00,,,0.08,Wunderground v.1.15,2013-05-12 17:22:00,
2013-05-12 13:27:00,68.5,59.5,29.60,WSW,253,2.0,3.0,73,0.00,,,0.08,Wunderground v.1.15,2013-05-12 17:27:00,
2013-05-12 13:32:00,68.5,59.1,29.59,WNW,286,1.0,1.0,72,0.00,,,0.08,Wunderground v.1.15,2013-05-12 17:32:00,
2013-05-12 13:38:00,68.5,58.3,29.59,North,10,2.0,3.0,70,0.00,,,0.08,Wunderground v.1.15,2013-05-12 17:38:00,
2013-05-12 13:43:00,68.6,58.0,29.59,ENE,60,2.0,4.0,69,0.00,,,0.08,Wunderground v.1.15,2013-05-12 17:43:00,
2013-05-12 13:48:00,68.6,57.2,29.59,NW,323,1.0,5.0,67,0.00,,,0.08,Wunderground v.1.15,2013-05-12 17:48:00,
2013-05-12 13:53:00,68.9,57.9,29.58,SSW,195,0.0,4.0,68,0.00,,,0.08,Wunderground v.1.15,2013-05-12 17:53:00,
2013-05-12 13:58:00,69.3,59.1,29.58,NW,310,0.0,4.0,70,0.00,,,0.08,Wunderground v.1.15,2013-05-12 17:58:00,
2013-05-12 14:03:00,69.3,57.9,29.58,SW,215,2.0,4.0,67,0.00,,,0.08,Wunderground v.1.15,2013-05-12 18:03:00,
2013-05-12 14:08:00,69.5,58.9,29.58,East,87,1.0,4.0,69,0.00,,,0.08,Wunderground v.1.15,2013-05-12 18:08:00,
2013-05-12 14:13:00,69.8,60.0,29.57,NNE,30,0.0,2.0,71,0.00,,,0.08,Wunderground v.1.15,2013-05-12 18:13:00,
2013-05-12 14:18:00,69.9,58.4,29.57,SSW,212,0.0,4.0,67,0.00,,,0.08,Wunderground v.1.15,2013-05-12 18:18:00,
2013-05-12 14:23:00,70.4,58.5,29.58,WSW,251,1.0,3.0,66,0.00,,,0.08,Wunderground v.1.15,2013-05-12 18:23:00,
2013-05-12 14:28:00,70.8,58.9,29.57,ESE,106,1.0,3.0,66,0.00,,,0.08,Wunderground v.1.15,2013-05-12 18:28:00,
2013-05-12 14:34:00,70.8,57.6,29.58,South,186,1.0,3.0,63,0.00,,,0.08,Wunderground v.1.15,2013-05-12 18:34:00,
2013-05-12 14:39:00,70.6,58.3,29.58,SSE,154,2.0,3.0,65,0.00,,,0.08,Wunderground v.1.15,2013-05-12 18:39:00,
2013-05-12 14:44:00,70.8,58.4,29.57,SSW,210,1.0,2.0,65,0.00,,,0.08,Wunderground v.1.15,2013-05-12 18:44:00,
2013-05-12 14:49:00,71.2,58.4,29.57,SSE,156,0.0,3.0,64,0.00,,,0.08,Wunderground v.1.15,2013-05-12 18:49:00,
2013-05-12 14:54:00,71.4,58.1,29.57,SE,130,0.0,2.0,63,0.00,,,0.08,Wunderground v.1.15,2013-05-12 18:54:00,
2013-05-12 14:59:00,71.6,57.9,29.57,NNE,27,1.0,3.0,62,0.00,,,0.08,Wunderground v.1.15,2013-05-12 18:59:00,
2013-05-12 15:04:00,71.5,58.7,29.57,WNW,288,0.0,3.0,64,0.00,,,0.08,Wunderground v.1.15,2013-05-12 19:04:00,
2013-05-12 15:09:00,71.6,58.3,29.57,SSE,161,1.0,4.0,63,0.00,,,0.08,Wunderground v.1.15,2013-05-12 19:09:00,
2013-05-12 15:14:00,71.7,58.9,29.58,NNW,329,0.0,2.0,64,0.00,,,0.08,Wunderground v.1.15,2013-05-12 19:14:00,
2013-05-12 15:20:00,71.3,58.1,29.57,SE,146,2.0,2.0,63,0.00,,,0.08,Wunderground v.1.15,2013-05-12 19:20:00,
2013-05-12 15:25:00,71.0,58.2,29.57,NNE,23,0.0,5.0,64,0.00,,,0.08,Wunderground v.1.15,2013-05-12 19:25:00,
2013-05-12 15:30:00,70.9,58.5,29.57,SSE,163,2.0,2.0,65,0.00,,,0.08,Wunderground v.1.15,2013-05-12 19:30:00,
2013-05-12 15:35:00,70.7,58.4,29.57,SSW,209,2.0,4.0,65,0.00,,,0.08,Wunderground v.1.15,2013-05-12 19:35:00,
2013-05-12 15:40:00,70.4,58.9,29.57,South,171,0.0,1.0,67,0.00,,,0.08,Wunderground v.1.15,2013-05-12 19:40:00,
2013-05-12 15:45:00,70.6,59.1,29.57,ENE,65,0.0,2.0,67,0.00,,,0.08,Wunderground v.1.15,2013-05-12 19:45:00,
2013-05-12 15:50:00,70.8,58.9,29.57,South,177,1.0,1.0,66,0.00,,,0.08,Wunderground v.1.15,2013-05-12 19:50:00,
2013-05-12 15:55:00,70.8,58.4,29.57,SSE,150,1.0,5.0,65,0.00,,,0.08,Wunderground v.1.15,2013-05-12 19:55:00,
2013-05-12 16:00:00,70.6,57.8,29.57,SSW,200,4.0,4.0,64,0.00,,,0.08,Wunderground v.1.15,2013-05-12 20:00:00,
2013-05-12 16:05:00,70.4,58.1,29.57,South,183,0.0,4.0,65,0.00,,,0.08,Wunderground v.1.15,2013-05-12 20:05:00,
2013-05-12 16:10:00,70.4,58.9,29.57,West,263,1.0,1.0,67,0.00,,,0.08,Wunderground v.1.15,2013-05-12 20:10:00,
2013-05-12 16:15:00,70.4,57.6,29.57,North,355,1.0,6.0,64,0.00,,,0.08,Wunderground v.1.15,2013-05-12 20:15:00,
2013-05-12 16:20:00,70.1,58.2,29.57,SSE,159,4.0,4.0,66,0.00,,,0.08,Wunderground v.1.15,2013-05-12 20:20:00,
2013-05-12 16:26:00,69.8,57.1,29.57,SW,219,1.0,4.0,64,0.00,,,0.08,Wunderground v.1.15,2013-05-12 20:26:00,
2013-05-12 16:31:00,69.6,58.2,29.57,NE,46,0.0,1.0,67,0.00,,,0.08,Wunderground v.1.15,2013-05-12 20:31:00,
2013-05-12 16:36:00,69.4,57.5,29.57,NW,323,5.0,5.0,66,0.00,,,0.08,Wunderground v.1.15,2013-05-12 20:36:00,
2013-05-12 16:41:00,69.2,58.6,29.57,SSE,161,2.0,3.0,69,0.00,,,0.08,Wunderground v.1.15,2013-05-12 20:41:00,
2013-05-12 16:46:00,69.0,57.6,29.57,SSW,207,0.0,4.0,67,0.00,,,0.08,Wunderground v.1.15,2013-05-12 20:46:00,
2013-05-12 16:51:00,68.9,57.1,29.57,SW,221,2.0,6.0,66,0.00,,,0.08,Wunderground v.1.15,2013-05-12 20:51:00,
2013-05-12 16:56:00,68.7,57.7,29.57,NW,316,0.0,6.0,68,0.00,,,0.08,Wunderground v.1.15,2013-05-12 20:56:00,
2013-05-12 17:01:00,68.7,57.3,29.57,NNW,342,0.0,2.0,67,0.00,,,0.08,Wunderground v.1.15,2013-05-12 21:01:00,
2013-05-12 17:06:00,68.7,57.3,29.57,SSW,199,0.0,2.0,67,0.00,,,0.08,Wunderground v.1.15,2013-05-12 21:06:00,
2013-05-12 17:12:00,68.8,57.8,29.57,SW,233,1.0,1.0,68,0.00,,,0.08,Wunderground v.1.15,2013-05-12 21:12:00,
2013-05-12 17:17:00,68.8,56.1,29.58,SSE,157,1.0,5.0,64,0.00,,,0.08,Wunderground v.1.15,2013-05-12 21:17:00,
2013-05-12 17:22:00,68.6,55.9,29.57,NE,44,2.0,3.0,64,0.00,,,0.08,Wunderground v.1.15,2013-05-12 21:22:00,
2013-05-12 17:27:00,68.5,55.8,29.58,SSW,194,1.0,3.0,64,0.00,,,0.08,Wunderground v.1.15,2013-05-12 21:27:00,
2013-05-12 17:32:00,68.6,55.1,29.57,SW,234,0.0,2.0,62,0.00,,,0.08,Wunderground v.1.15,2013-05-12 21:32:00,
2013-05-12 17:37:00,68.5,54.1,29.57,WSW,240,3.0,5.0,60,0.00,,,0.08,Wunderground v.1.15,2013-05-12 21:37:00,
2013-05-12 17:43:00,68.4,54.4,29.58,South,186,1.0,4.0,61,0.00,,,0.08,Wunderground v.1.15,2013-05-12 21:43:00,
2013-05-12 17:48:00,68.3,53.4,29.57,SSW,206,2.0,4.0,59,0.00,,,0.08,Wunderground v.1.15,2013-05-12 21:48:00,
2013-05-12 17:53:00,68.1,53.7,29.58,ENE,74,0.0,4.0,60,0.00,,,0.08,Wunderground v.1.15,2013-05-12 21:53:00,
2013-05-12 17:58:00,68.0,53.6,29.58,South,187,0.0,4.0,60,0.00,,,0.08,Wunderground v.1.15,2013-05-12 21:58:00,
2013-05-12 18:03:00,67.7,52.9,29.58,WSW,240,0.0,3.0,59,0.00,,,0.08,Wunderground v.1.15,2013-05-12 22:03:00,
2013-05-12 18:08:00,67.3,51.5,29.58,South,183,0.0,7.0,57,0.00,,,0.08,Wunderground v.1.15,2013-05-12 22:08:00,
2013-05-12 18:13:00,67.0,51.3,29.59,South,172,0.0,5.0,57,0.00,,,0.08,Wunderground v.1.15,2013-05-12 22:13:00,
2013-05-12 18:19:00,66.8,52.0,29.59,South,184,0.0,5.0,59,0.00,,,0.08,Wunderground v.1.15,2013-05-12 22:19:00,
2013-05-12 18:24:00,66.6,52.3,29.60,WNW,295,0.0,2.0,60,0.00,,,0.08,Wunderground v.1.15,2013-05-12 22:24:00,
2013-05-12 18:29:00,66.4,51.6,29.61,WNW,298,3.0,3.0,59,0.00,,,0.08,Wunderground v.1.15,2013-05-12 22:29:00,
2013-05-12 18:34:00,66.2,50.5,29.61,West,271,4.0,12.0,57,0.00,,,0.08,Wunderground v.1.15,2013-05-12 22:34:00,
2013-05-12 18:39:00,65.8,50.6,29.62,NW,313,0.0,12.0,58,0.00,,,0.08,Wunderground v.1.15,2013-05-12 22:39:00,
2013-05-12 18:44:00,65.6,50.4,29.63,NNW,327,4.0,9.0,58,0.00,,,0.08,Wunderground v.1.15,2013-05-12 22:44:00,
2013-05-12 18:49:00,65.3,49.2,29.63,NW,315,9.0,12.0,56,0.00,,,0.08,Wunderground v.1.15,2013-05-12 22:49:00,
2013-05-12 18:54:00,64.8,48.7,29.64,North,5,8.0,12.0,56,0.00,,,0.08,Wunderground v.1.15,2013-05-12 22:54:00,
2013-05-12 18:59:00,64.2,48.6,29.64,NW,312,4.0,12.0,57,0.00,,,0.08,Wunderground v.1.15,2013-05-12 22:59:00,
2013-05-12 19:04:00,63.8,47.3,29.65,North,355,3.0,8.0,55,0.00,,,0.08,Wunderground v.1.15,2013-05-12 23:04:00,
2013-05-12 19:10:00,63.2,46.8,29.65,WNW,282,2.0,10.0,55,0.00,,,0.08,Wunderground v.1.15,2013-05-12 23:10:00,
2013-05-12 19:15:00,62.8,47.3,29.65,NW,313,3.0,13.0,57,0.00,,,0.08,Wunderground v.1.15,2013-05-12 23:15:00,
2013-05-12 19:20:00,62.4,46.5,29.66,SSE,167,2.0,4.0,56,0.00,,,0.08,Wunderground v.1.15,2013-05-12 23:20:00,
2013-05-12 19:26:00,62.0,46.6,29.66,NW,313,2.0,6.0,57,0.00,,,0.08,Wunderground v.1.15,2013-05-12 23:26:00,
2013-05-12 19:31:00,61.7,46.3,29.66,WNW,302,3.0,4.0,57,0.00,,,0.08,Wunderground v.1.15,2013-05-12 23:31:00,
2013-05-12 19:36:00,61.4,46.5,29.67,NW,304,7.0,8.0,58,0.00,,,0.08,Wunderground v.1.15,2013-05-12 23:36:00,
2013-05-12 19:41:00,61.1,46.2,29.67,NW,315,6.0,6.0,58,0.00,,,0.08,Wunderground v.1.15,2013-05-12 23:41:00,
2013-05-12 19:46:00,60.8,46.4,29.67,NW,311,0.0,6.0,59,0.00,,,0.08,Wunderground v.1.15,2013-05-12 23:46:00,
2013-05-12 19:51:00,60.5,45.2,29.67,WNW,302,1.0,2.0,57,0.00,,,0.08,Wunderground v.1.15,2013-05-12 23:51:00,
2013-05-12 19:56:00,60.2,44.0,29.68,NW,307,1.0,10.0,55,0.00,,,0.08,Wunderground v.1.15,2013-05-12 23:56:00,
2013-05-12 20:01:00,60.0,44.3,29.68,West,278,1.0,3.0,56,0.00,,,0.08,Wunderground v.1.15,2013-05-13 00:01:00,
2013-05-12 20:06:00,59.7,44.9,29.68,NW,304,0.0,5.0,58,0.00,,,0.08,Wunderground v.1.15,2013-05-13 00:06:00,
2013-05-12 20:11:00,59.3,45.0,29.68,WNW,296,0.0,9.0,59,0.00,,,0.08,Wunderground v.1.15,2013-05-13 00:11:00,
2013-05-12 20:16:00,59.0,43.8,29.69,NW,309,3.0,9.0,57,0.00,,,0.08,Wunderground v.1.15,2013-05-13 00:16:00,
2013-05-12 20:21:00,58.8,44.9,29.69,WNW,289,0.0,3.0,60,0.00,,,0.08,Wunderground v.1.15,2013-05-13 00:21:00,
2013-05-12 20:26:00,58.6,44.3,29.69,NW,311,0.0,6.0,59,0.00,,,0.08,Wunderground v.1.15,2013-05-13 00:26:00,
2013-05-12 20:31:00,58.4,43.7,29.69,NW,321,2.0,2.0,58,0.00,,,0.08,Wunderground v.1.15,2013-05-13 00:31:00,
2013-05-12 20:36:00,58.2,43.5,29.69,NW,312,0.0,3.0,58,0.00,,,0.08,Wunderground v.1.15,2013-05-13 00:36:00,
2013-05-12 20:41:00,58.1,44.7,29.70,NW,313,0.0,1.0,61,0.00,,,0.08,Wunderground v.1.15,2013-05-13 00:41:00,
2013-05-12 20:46:00,57.9,44.5,29.70,NW,313,1.0,3.0,61,0.00,,,0.08,Wunderground v.1.15,2013-05-13 00:46:00,
2013-05-12 20:51:00,57.7,43.5,29.71,NW,313,0.0,1.0,59,0.00,,,0.08,Wunderground v.1.15,2013-05-13 00:51:00,
2013-05-12 20:56:00,57.6,43.8,29.71,WNW,302,0.0,4.0,60,0.00,,,0.08,Wunderground v.1.15,2013-05-13 00:56:00,
2013-05-12 21:01:00,57.4,43.6,29.72,NW,304,1.0,4.0,60,0.00,,,0.08,Wunderground v.1.15,2013-05-13 01:01:00,
2013-05-12 21:06:00,57.3,43.5,29.72,NW,324,0.0,4.0,60,0.00,,,0.08,Wunderground v.1.15,2013-05-13 01:06:00,
2013-05-12 21:12:00,57.2,43.9,29.72,NW,324,1.0,1.0,61,0.00,,,0.08,Wunderground v.1.15,2013-05-13 01:12:00,
2013-05-12 21:16:00,56.9,43.6,29.72,NW,326,0.0,4.0,61,0.00,,,0.08,Wunderground v.1.15,2013-05-13 01:16:00,
2013-05-12 21:21:00,56.8,43.1,29.73,NW,313,3.0,5.0,60,0.00,,,0.08,Wunderground v.1.15,2013-05-13 01:21:00,
2013-05-12 21:27:00,56.6,42.9,29.73,WNW,298,1.0,6.0,60,0.00,,,0.08,Wunderground v.1.15,2013-05-13 01:27:00,
2013-05-12 21:32:00,56.6,42.9,29.73,NW,306,0.0,4.0,60,0.00,,,0.08,Wunderground v.1.15,2013-05-13 01:32:00,
2013-05-12 21:37:00,56.5,43.6,29.74,NW,322,0.0,6.0,62,0.00,,,0.08,Wunderground v.1.15,2013-05-13 01:37:00,
2013-05-12 21:42:00,56.3,42.1,29.74,NW,325,1.0,5.0,59,0.00,,,0.08,Wunderground v.1.15,2013-05-13 01:42:00,
2013-05-12 21:47:00,56.3,43.9,29.74,WNW,302,3.0,8.0,63,0.00,,,0.08,Wunderground v.1.15,2013-05-13 01:47:00,
2013-05-12 21:52:00,56.3,43.0,29.74,NNE,18,0.0,5.0,61,0.00,,,0.08,Wunderground v.1.15,2013-05-13 01:52:00,
2013-05-12 21:57:00,56.0,41.0,29.74,NW,313,0.0,5.0,57,0.00,,,0.08,Wunderground v.1.15,2013-05-13 01:57:00,
2013-05-12 22:02:00,55.8,40.3,29.75,NW,314,2.0,6.0,56,0.00,,,0.08,Wunderground v.1.15,2013-05-13 02:02:00,
2013-05-12 22:07:00,55.5,39.6,29.75,WNW,296,1.0,6.0,55,0.00,,,0.08,Wunderground v.1.15,2013-05-13 02:07:00,
2013-05-12 22:12:00,55.3,38.9,29.75,NW,313,0.0,4.0,54,0.00,,,0.08,Wunderground v.1.15,2013-05-13 02:12:00,
2013-05-12 22:17:00,55.0,39.1,29.75,NW,321,1.0,4.0,55,0.00,,,0.08,Wunderground v.1.15,2013-05-13 02:17:00,
2013-05-12 22:22:00,54.8,39.4,29.75,NW,321,0.0,1.0,56,0.00,,,0.08,Wunderground v.1.15,2013-05-13 02:22:00,
2013-05-12 22:28:00,54.4,38.6,29.76,NW,321,0.0,1.0,55,0.00,,,0.08,Wunderground v.1.15,2013-05-13 02:28:00,
2013-05-12 22:33:00,53.9,39.0,29.76,NW,321,0.0,1.0,57,0.00,,,0.08,Wunderground v.1.15,2013-05-13 02:33:00,
2013-05-12 22:38:00,53.4,39.0,29.76,NW,321,0.0,1.0,58,0.00,,,0.08,Wunderground v.1.15,2013-05-13 02:38:00,
2013-05-12 22:43:00,52.9,39.0,29.76,NW,321,0.0,1.0,59,0.00,,,0.08,Wunderground v.1.15,2013-05-13 02:43:00,
2013-05-12 22:48:00,52.5,39.4,29.76,NW,321,0.0,1.0,61,0.00,,,0.08,Wunderground v.1.15,2013-05-13 02:48:00,
2013-05-12 22:53:00,52.0,38.1,29.77,NW,321,1.0,1.0,59,0.00,,,0.08,Wunderground v.1.15,2013-05-13 02:53:00,
2013-05-12 22:58:00,51.7,39.1,29.77,NW,321,0.0,1.0,62,0.00,,,0.08,Wunderground v.1.15,2013-05-13 02:58:00,
2013-05-12 23:03:00,51.4,39.2,29.77,NW,321,0.0,1.0,63,0.00,,,0.08,Wunderground v.1.15,2013-05-13 03:03:00,
2013-05-12 23:08:00,51.1,39.7,29.77,NW,321,1.0,1.0,65,0.00,,,0.08,Wunderground v.1.15,2013-05-13 03:08:00,
2013-05-12 23:13:00,50.7,39.7,29.78,NW,321,0.0,1.0,66,0.00,,,0.08,Wunderground v.1.15,2013-05-13 03:13:00,
2013-05-12 23:18:00,50.4,39.9,29.78,NW,321,0.0,1.0,67,0.00,,,0.08,Wunderground v.1.15,2013-05-13 03:18:00,
2013-05-12 23:23:00,50.1,39.6,29.79,NW,321,0.0,1.0,67,0.00,,,0.08,Wunderground v.1.15,2013-05-13 03:23:00,
2013-05-12 23:28:00,49.9,40.1,29.79,NW,313,1.0,2.0,69,0.00,,,0.08,Wunderground v.1.15,2013-05-13 03:28:00,
2013-05-12 23:33:00,49.8,39.3,29.80,NW,313,0.0,1.0,67,0.00,,,0.08,Wunderground v.1.15,2013-05-13 03:33:00,
2013-05-12 23:39:00,49.9,38.2,29.80,NW,317,7.0,7.0,64,0.00,,,0.08,Wunderground v.1.15,2013-05-13 03:39:00,
2013-05-12 23:44:00,51.0,36.3,29.80,WNW,284,1.0,8.0,57,0.00,,,0.08,Wunderground v.1.15,2013-05-13 03:44:00,
2013-05-12 23:49:00,51.8,36.6,29.81,WNW,299,4.0,9.0,56,0.00,,,0.08,Wunderground v.1.15,2013-05-13 03:49:00,
2013-05-12 23:54:00,52.2,36.0,29.81,NW,316,5.0,5.0,54,0.00,,,0.08,Wunderground v.1.15,2013-05-13 03:54:00,
2013-05-12 23:59:00,52.2,36.5,29.81,WNW,298,0.0,5.0,55,0.00,,,0.08,Wunderground v.1.15,2013-05-13 03:59:00,